Simultaneous Nadir Overpasses (SNOs) Predictions

Prediction of SNOs between METOP-A and NOAA-19 Satellite Orbit:

Table of predicted SNOs for the next 14.0 days since TLE Epoch: 1/31/2020
Index Date (METOP-A) Time (METOP-A) Lat,Lon (METOP-A) SZA (METOP-A ) Date (NOAA-19) Time (NOAA-19) Lat,Lon (NOAA-19) SZA (NOAA-19 ) Distance(km) Time Diff (sec)
1 02/02/2020 03:15:21 -80.28, -35.38 82.64 02/02/2020 03:14:21 -80.28, -35.51 82.66 2.38 60
2 02/02/2020 04:06:02 80.27, 131.76 97.33 02/02/2020 04:05:23 80.29, 131.62 97.34 3.55 39
3 02/02/2020 04:56:43 -80.27, -60.85 82.68 02/02/2020 04:56:21 -80.27, -60.78 82.68 1.42 22
4 02/02/2020 05:47:24 80.26, 106.29 97.29 02/02/2020 05:47:23 80.28, 106.34 97.31 2.45 1
5 02/02/2020 06:38:05 -80.26, -86.32 82.71 02/02/2020 06:38:22 -80.27, -86.38 82.70 1.86 17
6 02/02/2020 07:28:45 80.27, 81.13 97.29 02/02/2020 07:29:23 80.26, 81.06 97.29 1.69 38
7 02/02/2020 08:19:27 -80.25,-111.78 82.75 02/02/2020 08:20:22 -80.26,-111.66 82.73 2.67 55
8 02/02/2020 09:10:11 80.14, 54.44 97.11 02/02/2020 09:11:20 80.19, 56.77 97.23 44.45 69
9 02/13/2020 03:38:04 80.29, 138.81 93.93 02/13/2020 03:37:02 80.30, 138.97 93.94 3.20 62
10 02/13/2020 04:28:45 -80.30, -53.76 86.08 02/13/2020 04:28:04 -80.30, -53.74 86.08 0.57 41
11 02/13/2020 05:19:25 80.31, 113.65 93.93 02/13/2020 05:19:02 80.29, 113.70 93.90 2.55 23
12 02/13/2020 06:10:07 -80.29, -79.23 86.11 02/13/2020 06:10:05 -80.30, -79.35 86.10 2.64 2
13 02/13/2020 07:00:47 80.30, 88.18 93.89 02/13/2020 07:01:03 80.29, 88.08 93.88 1.88 16
14 02/13/2020 07:51:29 -80.28,-104.70 86.15 02/13/2020 07:52:05 -80.29,-104.62 86.13 2.07 36
15 02/13/2020 08:42:09 80.28, 62.71 93.85 02/13/2020 08:43:03 80.28, 62.81 93.85 1.81 54




NCC Satellite Simultaneous Nadir Overpasses (SNOs) Prediction Service
